Content
SEND FEEDBACK

Daily
Averages
Monthly
Summary
United States of America

TAMUNING, GUAM


Home > North America > United States > Guam
Elevation: 250 feet     Latitude: 13 29N     Longitude: 144 47E

WEATHER
 
SELECT A DAY
Number of Records: 341,524;   Date Range: 1/1/95 - 7/7/14
 
SHARE

PRINT THIS DATA

[ ← Previous Day ]
WEATHER ALMANAC - APRIL 1, 2013
[ Next Day → ]
[ °C ]   °F
Weather ElementAverageHighLow
Temperature78.3 °F84.2 °F (11:03 am)73.4 °F (7:24 pm)
Dewpoint74.5 °F77 °F (11:03 am)71.6 °F (2:51 am)
Humidity88.3 %100 % (2:00 pm)74 % (12:17 pm)
Barometer29.91 in29.97 in (8:55 am)29.88 in (2:31 am)
Wind Speed17.3 mph33.4 mph (3:51 pm)
Wind Gust36.8 mph (3:50 pm)
Weather ElementAverage
Visibility7.7 mi
Wind DirectionENE (72.7 °)

Weather ElementTotal
Precipitation---
Cooling Degree Days13.8 (Base 65)
Growing Degree Days28.8 (Base 50)
Averaged from 188 records on April 1, 2013
WEATHER CONDITIONS BREAKOUT
WIND DIRECTION BREAKOUT
WEATHER BY HOUR - APRIL 1, 2013
[ °C ]   °F
Local TimeTemperatureDewpointHumidityBarometerVisibilityWind DirectionWind SpeedGust SpeedPrecipitationEventsConditions
12:55 AM78.1 °F73.0 °F84 %29.90 in10.0 miEast (80°)13.8 mphPartly Cloudy
1:19 AM78.8 °F73.4 °F83 %29.90 in10.0 miEast (80°)12.7 mphMostly Cloudy
1:21 AM78.8 °F73.4 °F83 %29.90 in10.0 miEast (80°)11.5 mphScattered Clouds
1:23 AM78.8 °F73.4 °F83 %29.90 in10.0 miEast (80°)12.7 mphMostly Cloudy
1:25 AM78.8 °F73.4 °F83 %29.90 in10.0 miEast (80°)13.8 mphMostly Cloudy
1:27 AM78.8 °F73.4 °F83 %29.90 in10.0 miEast (80°)11.5 mphMostly Cloudy
1:39 AM78.8 °F73.4 °F83 %29.90 in10.0 miEast (80°)15.0 mphMostly Cloudy
1:42 AM78.8 °F73.4 °F83 %29.90 in10.0 miEast (90°)13.8 mphMostly Cloudy
1:43 AM78.8 °F73.4 °F83 %29.90 in10.0 miEast (80°)13.8 mphScattered Clouds
1:44 AM78.8 °F73.4 °F83 %29.90 in10.0 miEast (80°)11.5 mphMostly Cloudy
1:45 AM78.8 °F73.4 °F83 %29.90 in10.0 miEast (80°)12.7 mphScattered Clouds
1:55 AM77.9 °F72.9 °F84 %29.89 in10.0 miEast (80°)13.8 mphPartly Cloudy
2:31 AM78.8 °F73.4 °F83 %29.88 in10.0 miENE (70°)12.7 mphRainLight Rain
2:35 AM78.8 °F73.4 °F83 %29.88 in10.0 miEast (80°)16.1 mphLight Drizzle
2:41 AM77.0 °F73.4 °F89 %29.88 in10.0 miENE (70°)16.1 mphMostly Cloudy
2:51 AM77.0 °F71.6 °F83 %29.88 in10.0 miEast (80°)16.1 mphMostly Cloudy
2:55 AM77.7 °F72.9 °F85 %29.88 in10.0 miEast (80°)13.8 mph0.00 inMostly Cloudy
2:56 AM77.0 °F73.4 °F89 %29.88 in10.0 miEast (80°)15.0 mphMostly Cloudy
3:03 AM78.8 °F73.4 °F83 %29.88 in10.0 miEast (80°)17.3 mphMostly Cloudy
3:24 AM78.8 °F73.4 °F83 %29.88 in10.0 miEast (80°)15.0 mphScattered Clouds
3:37 AM78.8 °F73.4 °F83 %29.88 in10.0 miENE (70°)16.1 mphMostly Cloudy
3:48 AM78.8 °F73.4 °F83 %29.88 in10.0 miEast (80°)16.1 mphScattered Clouds
3:49 AM78.8 °F73.4 °F83 %29.88 in10.0 miEast (80°)15.0 mphMostly Cloudy
3:51 AM78.8 °F73.4 °F83 %29.88 in10.0 miEast (80°)15.0 mphScattered Clouds
3:53 AM78.8 °F73.4 °F83 %29.88 in10.0 miENE (70°)16.1 mphMostly Cloudy
3:55 AM78.1 °F72.7 °F83 %29.88 in10.0 miENE (70°)15.0 mphMostly Cloudy
4:03 AM78.8 °F71.6 °F78 %29.88 in10.0 miEast (80°)12.7 mphScattered Clouds
4:55 AM77.7 °F73.2 °F86 %29.90 in10.0 miEast (80°)12.7 mphScattered Clouds
5:10 AM78.8 °F73.4 °F83 %29.90 in10.0 miENE (70°)13.8 mphMostly Cloudy
5:31 AM78.8 °F73.4 °F83 %29.91 in10.0 miENE (60°)16.1 mphMostly Cloudy
5:35 AM77.0 °F73.4 °F89 %29.91 in10.0 miENE (60°)15.0 mphMostly Cloudy
5:40 AM77.0 °F73.4 °F89 %29.91 in10.0 miENE (60°)13.8 mphMostly Cloudy
5:55 AM77.7 °F73.4 °F86 %29.91 in10.0 miENE (70°)13.8 mphMostly Cloudy
5:58 AM77.0 °F73.4 °F89 %29.91 in10.0 miENE (70°)15.0 mphMostly Cloudy
6:55 AM78.3 °F74.1 °F87 %29.94 in10.0 miEast (80°)8.1 mphPartly Cloudy
7:28 AM78.8 °F73.4 °F83 %29.95 in10.0 miENE (70°)12.7 mphMostly Cloudy
7:43 AM78.8 °F75.2 °F89 %29.95 in10.0 miENE (60°)12.7 mphMostly Cloudy
7:46 AM78.8 °F75.2 °F89 %29.96 in6.0 miENE (70°)17.3 mph25.3 mphHaze
7:47 AM78.8 °F75.2 °F89 %29.96 in4.0 miENE (70°)16.1 mph25.3 mphRainLight Rain
7:48 AM78.8 °F75.2 °F89 %29.96 in3.0 miENE (70°)17.3 mph25.3 mphRainLight Rain
7:52 AM78.8 °F75.2 °F89 %29.96 in3.0 miEast (80°)15.0 mph25.3 mphRainRain
7:55 AM78.3 °F74.7 °F89 %29.96 in3.0 miENE (70°)15.0 mph25.3 mph0.00 inRainLight Rain
8:00 AM78.8 °F75.2 °F89 %29.96 in10.0 miENE (70°)15.0 mphMostly Cloudy
8:01 AM78.8 °F75.2 °F89 %29.96 in10.0 miENE (70°)13.8 mphMostly Cloudy
8:05 AM78.8 °F75.2 °F89 %29.96 in10.0 miNE (50°)12.7 mphMostly Cloudy
8:10 AM78.8 °F75.2 °F89 %29.96 in10.0 miENE (60°)11.5 mphMostly Cloudy
8:55 AM80.8 °F75.6 °F84 %29.97 in10.0 miENE (70°)12.7 mph0.00 inPartly Cloudy
9:48 AM80.6 °F75.2 °F84 %29.97 in10.0 miENE (70°)11.5 mphMostly Cloudy
9:50 AM80.6 °F75.2 °F84 %29.97 in10.0 miENE (60°)13.8 mphMostly Cloudy
9:51 AM80.6 °F75.2 °F84 %29.96 in10.0 miENE (60°)13.8 mphMostly Cloudy
9:54 AM80.6 °F75.2 °F84 %29.96 in10.0 miENE (70°)10.4 mphMostly Cloudy
9:55 AM81.1 °F74.5 °F80 %29.96 in10.0 miENE (70°)11.5 mphMostly Cloudy
10:16 AM80.6 °F75.2 °F84 %29.96 in10.0 miENE (70°)13.8 mphLight Drizzle
10:26 AM80.6 °F75.2 °F84 %29.96 in10.0 miENE (60°)16.1 mph19.6 mphMostly Cloudy
10:31 AM80.6 °F75.2 °F84 %29.95 in10.0 miENE (70°)15.0 mph19.6 mphMostly Cloudy
10:55 AM83.8 °F75.2 °F75 %29.95 in10.0 miEast (80°)17.3 mph0.00 inMostly Cloudy
11:03 AM84.2 °F77.0 °F79 %29.94 in10.0 miENE (60°)15.0 mphMostly Cloudy
11:04 AM84.2 °F77.0 °F79 %29.94 in10.0 miENE (60°)16.1 mphMostly Cloudy
11:11 AM84.2 °F77.0 °F79 %29.94 in10.0 miENE (60°)15.0 mphMostly Cloudy
11:13 AM84.2 °F77.0 °F79 %29.94 in10.0 miENE (70°)13.8 mphMostly Cloudy
11:55 AM84.2 °F76.1 °F77 %29.93 in10.0 miENE (60°)16.1 mphMostly Cloudy
12:17 PM84.2 °F75.2 °F74 %29.92 in10.0 miENE (70°)16.1 mph24.2 mphMostly Cloudy
12:18 PM84.2 °F75.2 °F74 %29.92 in10.0 miENE (70°)15.0 mph24.2 mphMostly Cloudy
12:31 PM84.2 °F75.2 °F74 %29.92 in10.0 miNE (50°)19.6 mph25.3 mphMostly Cloudy
12:34 PM84.2 °F75.2 °F74 %29.91 in10.0 miENE (60°)20.7 mph25.3 mphMostly Cloudy
12:46 PM84.2 °F75.2 °F74 %29.91 in10.0 miENE (60°)21.9 mphMostly Cloudy
12:51 PM82.4 °F77.0 °F84 %29.91 in10.0 miNE (50°)21.9 mphMostly Cloudy
12:52 PM82.4 °F77.0 °F84 %29.91 in10.0 miNE (50°)23.0 mphMostly Cloudy
12:53 PM82.4 °F77.0 °F84 %29.91 in10.0 miNE (50°)21.9 mphMostly Cloudy
12:55 PM82.8 °F75.9 °F80 %29.91 in10.0 miNE (50°)21.9 mphMostly Cloudy
1:03 PM82.4 °F75.2 °F79 %29.91 in10.0 miENE (60°)20.7 mph26.5 mphOvercast
1:06 PM80.6 °F75.2 °F84 %29.91 in8.0 miEast (80°)19.6 mph26.5 mphOvercast
1:07 PM80.6 °F75.2 °F84 %29.91 in7.0 miENE (70°)19.6 mph26.5 mphLight Drizzle
1:10 PM80.6 °F75.2 °F84 %29.91 in7.0 miEast (80°)21.9 mph27.6 mphRainLight Rain
1:17 PM78.8 °F75.2 °F89 %29.91 in5.0 miENE (70°)20.7 mph27.6 mphRainLight Rain
1:18 PM78.8 °F75.2 °F89 %29.91 in6.0 miENE (60°)19.6 mph27.6 mphRainLight Rain
1:20 PM78.8 °F75.2 °F89 %29.91 in6.0 miENE (60°)19.6 mph27.6 mphLight Drizzle
1:22 PM78.8 °F75.2 °F89 %29.91 in6.0 miENE (60°)18.4 mph27.6 mphOvercast
1:24 PM78.8 °F75.2 °F89 %29.91 in7.0 miENE (70°)18.4 mph27.6 mphLight Drizzle
1:32 PM77.0 °F75.2 °F94 %29.91 in4.0 miENE (70°)19.6 mphLight Drizzle
1:36 PM77.0 °F75.2 °F94 %29.91 in3.0 miEast (80°)16.1 mphLight Drizzle
1:39 PM77.0 °F75.2 °F94 %29.91 in3.0 miEast (80°)17.3 mphRainLight Rain
1:44 PM77.0 °F75.2 °F94 %29.90 in4.0 miENE (70°)15.0 mphRainLight Rain
1:48 PM77.0 °F75.2 °F94 %29.90 in8.0 miENE (70°)13.8 mphRainLight Rain
1:50 PM77.0 °F75.2 °F94 %29.90 in8.0 miENE (70°)15.0 mphRainLight Rain
1:55 PM77.4 °F75.4 °F94 %29.89 in10.0 miENE (60°)13.8 mph21.9 mph0.00 inRainLight Rain
1:56 PM77.0 °F75.2 °F94 %29.90 in10.0 miENE (70°)16.1 mph21.9 mphOvercast
1:59 PM77.0 °F75.2 °F94 %29.89 in10.0 miENE (70°)15.0 mph21.9 mphOvercast
2:00 PM77.0 °F77.0 °F100 %29.89 in10.0 miENE (70°)16.1 mph21.9 mphOvercast
2:01 PM77.0 °F77.0 °F100 %29.89 in10.0 miENE (70°)13.8 mph21.9 mphOvercast
2:02 PM78.8 °F77.0 °F94 %29.89 in10.0 miENE (60°)12.7 mph21.9 mphOvercast
2:05 PM78.8 °F77.0 °F94 %29.89 in10.0 miENE (60°)15.0 mph21.9 mphOvercast
2:22 PM80.6 °F77.0 °F89 %29.88 in10.0 miENE (70°)15.0 mphOvercast
2:34 PM80.6 °F75.2 °F84 %29.88 in10.0 miENE (60°)16.1 mphOvercast
2:49 PM80.6 °F75.2 °F84 %29.88 in10.0 miENE (70°)16.1 mphOvercast
2:55 PM81.5 °F75.7 °F83 %29.88 in10.0 miENE (60°)17.3 mphOvercast
3:15 PM82.4 °F77.0 °F84 %29.88 in4.0 miENE (70°)17.3 mph25.3 mphRainLight Rain
3:18 PM80.6 °F77.0 °F89 %29.88 in2.5 miENE (70°)17.3 mph25.3 mphRainRain
3:21 PM78.8 °F75.2 °F89 %29.88 in2.0 miENE (70°)16.1 mph25.3 mphRainLight Rain
3:23 PM78.8 °F75.2 °F89 %29.88 in2.0 miENE (70°)16.1 mph25.3 mphRainLight Rain
3:24 PM78.8 °F75.2 °F89 %29.88 in2.5 miENE (70°)15.0 mph25.3 mphRainRain
3:25 PM78.8 °F75.2 °F89 %29.88 in3.0 miENE (60°)15.0 mph25.3 mphRainRain
3:26 PM78.8 °F75.2 °F89 %29.88 in3.0 miENE (60°)13.8 mph25.3 mphRainRain
3:28 PM78.8 °F75.2 °F89 %29.88 in5.0 miENE (60°)15.0 mph25.3 mphRainLight Rain
3:31 PM78.8 °F77.0 °F94 %29.88 in7.0 miENE (70°)15.0 mphRainLight Rain
3:32 PM78.8 °F77.0 °F94 %29.88 in9.0 miEast (80°)16.1 mphMostly Cloudy
3:41 PM80.6 °F77.0 °F89 %29.88 in10.0 miENE (70°)17.3 mph24.2 mphScattered Clouds
3:44 PM80.6 °F77.0 °F89 %29.88 in10.0 miENE (70°)18.4 mph24.2 mphScattered Clouds
3:50 PM80.6 °F77.0 °F89 %29.89 in1.8 miEast (80°)31.1 mph36.8 mphRainHeavy Rain
3:51 PM80.6 °F75.2 °F84 %29.88 in1.2 miEast (80°)33.4 mph36.8 mphRainHeavy Rain
3:52 PM78.8 °F75.2 °F89 %29.89 in1.0 miENE (70°)31.1 mph36.8 mphRainHeavy Rain
3:53 PM78.8 °F75.2 °F89 %29.88 in0.8 miEast (80°)26.5 mph36.8 mphRainHeavy Rain
3:55 PM77.2 °F73.9 °F90 %29.89 in0.8 miENE (70°)25.3 mph36.8 mph0.00 inRainRain
4:03 PM75.2 °F73.4 °F94 %29.89 in1.0 miENE (70°)20.7 mph32.2 mphRainHeavy Rain
4:06 PM75.2 °F73.4 °F94 %29.89 in1.0 miENE (70°)23.0 mphRainRain
4:08 PM75.2 °F73.4 °F94 %29.88 in1.2 miENE (70°)20.7 mphRainLight Rain
4:09 PM75.2 °F73.4 °F94 %29.88 in1.5 miENE (70°)19.6 mph28.8 mphRainLight Rain
4:11 PM75.2 °F73.4 °F94 %29.88 in2.0 miENE (70°)16.1 mph28.8 mphRainLight Rain
4:12 PM75.2 °F73.4 °F94 %29.88 in2.5 miENE (70°)15.0 mphRainLight Rain
4:13 PM75.2 °F73.4 °F94 %29.88 in3.0 miENE (70°)15.0 mphRainLight Rain
4:18 PM75.2 °F73.4 °F94 %29.88 in9.0 miEast (80°)17.3 mphOvercast
4:22 PM77.0 °F73.4 °F89 %29.88 in10.0 miEast (80°)17.3 mphOvercast
4:35 PM77.0 °F75.2 °F94 %29.88 in4.0 miEast (80°)20.7 mph28.8 mphRainLight Rain
4:41 PM77.0 °F75.2 °F94 %29.88 in4.0 miEast (90°)19.6 mph28.8 mphRainLight Rain
4:45 PM77.0 °F75.2 °F94 %29.88 in7.0 miEast (90°)16.1 mph25.3 mphOvercast
4:47 PM77.0 °F75.2 °F94 %29.88 in9.0 miEast (90°)18.4 mph25.3 mphOvercast
4:48 PM77.0 °F75.2 °F94 %29.88 in9.0 miEast (90°)17.3 mphOvercast
4:55 PM77.5 °F74.8 °F91 %29.88 in10.0 miEast (80°)20.7 mph0.00 inOvercast
5:01 PM77.0 °F73.4 °F89 %29.88 in10.0 miEast (80°)23.0 mph26.5 mphOvercast
5:17 PM78.8 °F75.2 °F89 %29.88 in10.0 miEast (80°)16.1 mphMostly Cloudy
5:49 PM77.0 °F75.2 °F94 %29.89 in10.0 miENE (70°)13.8 mph24.2 mphMostly Cloudy
5:55 PM77.0 °F74.8 °F93 %29.89 in10.0 miENE (70°)15.0 mphScattered Clouds
6:14 PM77.0 °F73.4 °F89 %29.90 in2.5 miEast (90°)26.5 mph32.2 mphRainRain
6:15 PM77.0 °F73.4 °F89 %29.90 in1.8 miEast (80°)26.5 mph32.2 mphRainRain
6:16 PM77.0 °F73.4 °F89 %29.90 in1.2 miEast (80°)27.6 mph32.2 mphRainRain
6:17 PM77.0 °F73.4 °F89 %29.91 in1.0 miEast (80°)28.8 mph32.2 mphRainHeavy Rain
6:20 PM75.2 °F73.4 °F94 %29.91 in1.0 miENE (70°)26.5 mph32.2 mphRainLight Rain
6:24 PM75.2 °F73.4 °F94 %29.91 in1.2 miENE (70°)20.7 mph32.2 mphRainLight Rain
6:25 PM75.2 °F73.4 °F94 %29.91 in1.5 miENE (70°)20.7 mph32.2 mphRainLight Rain
6:26 PM75.2 °F73.4 °F94 %29.91 in2.0 miENE (70°)21.9 mph32.2 mphRainLight Rain
6:27 PM75.2 °F73.4 °F94 %29.91 in3.0 miENE (70°)24.2 mph32.2 mphRainLight Rain
6:29 PM75.2 °F73.4 °F94 %29.91 in4.0 miEast (80°)21.9 mph32.2 mphRainLight Rain
6:31 PM75.2 °F73.4 °F94 %29.91 in5.0 miENE (70°)20.7 mph32.2 mphLight Drizzle
6:38 PM75.2 °F73.4 °F94 %29.91 in6.0 miENE (70°)16.1 mph27.6 mphRainLight Rain
6:40 PM75.2 °F73.4 °F94 %29.90 in7.0 miENE (70°)15.0 mph27.6 mphOvercast
6:47 PM75.2 °F75.2 °F100 %29.91 in8.0 miENE (70°)15.0 mphRainLight Rain
6:51 PM75.2 °F75.2 °F100 %29.91 in6.0 miENE (70°)17.3 mph24.2 mphLight Drizzle
6:55 PM75.9 °F74.7 °F96 %29.91 in6.0 miENE (70°)20.7 mph27.6 mphLight Drizzle
6:58 PM75.2 °F75.2 °F100 %29.91 in7.0 miEast (80°)23.0 mph29.9 mphLight Drizzle
7:00 PM75.2 °F75.2 °F100 %29.91 in9.0 miEast (80°)20.7 mph29.9 mphOvercast
7:08 PM75.2 °F73.4 °F94 %29.91 in10.0 miENE (70°)25.3 mph33.4 mphOvercast
7:17 PM75.2 °F71.6 °F89 %29.91 in10.0 miENE (60°)23.0 mphOvercast
7:24 PM73.4 °F71.6 °F94 %29.91 in10.0 miENE (60°)18.4 mphOvercast
7:33 PM73.4 °F71.6 °F94 %29.92 in10.0 miENE (60°)13.8 mph24.2 mphOvercast
7:44 PM75.2 °F71.6 °F89 %29.92 in7.0 miEast (80°)17.3 mphRainLight Rain
7:47 PM75.2 °F71.6 °F89 %29.92 in6.0 miEast (80°)21.9 mph31.1 mphLight Drizzle
7:50 PM75.2 °F73.4 °F94 %29.92 in6.0 miEast (80°)20.7 mph31.1 mphLight Drizzle
7:55 PM75.2 °F73.4 °F94 %29.92 in8.0 miEast (80°)19.6 mph31.1 mphLight Drizzle
7:56 PM75.2 °F73.4 °F94 %29.92 in8.0 miEast (80°)18.4 mph31.1 mphLight Drizzle
7:57 PM75.2 °F73.4 °F94 %29.92 in8.0 miEast (80°)17.3 mph31.1 mphOvercast
7:59 PM75.2 °F73.4 °F94 %29.92 in7.0 miENE (70°)19.6 mph24.2 mphLight Drizzle
8:09 PM75.2 °F71.6 °F89 %29.92 in10.0 miENE (70°)13.8 mphOvercast
8:11 PM75.2 °F71.6 °F89 %29.92 in10.0 miENE (70°)13.8 mphOvercast
8:24 PM77.0 °F73.4 °F89 %29.92 in10.0 miEast (80°)12.7 mph23.0 mphOvercast
8:31 PM77.0 °F73.4 °F89 %29.92 in6.0 miEast (90°)25.3 mph33.4 mphRainLight Rain
8:35 PM75.2 °F73.4 °F94 %29.93 in2.5 miEast (80°)24.2 mph33.4 mphRainRain
8:36 PM75.2 °F73.4 °F94 %29.93 in2.0 miEast (80°)21.9 mph33.4 mphRainHeavy Rain
8:42 PM75.2 °F73.4 °F94 %29.93 in2.5 miEast (80°)17.3 mph33.4 mphRainLight Rain
8:43 PM75.2 °F73.4 °F94 %29.93 in3.0 miEast (90°)17.3 mph33.4 mphRainLight Rain
8:50 PM77.0 °F75.2 °F94 %29.93 in9.0 miEast (80°)16.1 mphMostly Cloudy
8:53 PM77.0 °F75.2 °F94 %29.93 in10.0 miEast (90°)16.1 mph23.0 mphMostly Cloudy
8:55 PM76.6 °F74.8 °F94 %29.93 in10.0 miEast (80°)15.0 mph23.0 mphMostly Cloudy
9:21 PM77.0 °F75.2 °F94 %29.93 in10.0 miEast (80°)16.1 mph23.0 mphMostly Cloudy
9:43 PM78.8 °F75.2 °F89 %29.93 in10.0 miEast (90°)18.4 mphMostly Cloudy
9:55 PM78.1 °F75.2 °F91 %29.93 in10.0 miEast (90°)18.4 mphMostly Cloudy
10:00 PM78.8 °F75.2 °F89 %29.93 in10.0 miEast (80°)17.3 mphMostly Cloudy
10:02 PM78.8 °F75.2 °F89 %29.93 in10.0 miEast (80°)16.1 mphMostly Cloudy
10:05 PM78.8 °F75.2 °F89 %29.93 in10.0 miEast (90°)15.0 mphMostly Cloudy
10:23 PM78.8 °F73.4 °F83 %29.94 in10.0 miEast (80°)15.0 mphMostly Cloudy
10:30 PM78.8 °F75.2 °F89 %29.94 in10.0 miEast (80°)17.3 mphMostly Cloudy
10:33 PM78.8 °F75.2 °F89 %29.94 in10.0 miENE (70°)18.4 mphMostly Cloudy
10:54 PM78.8 °F75.2 °F89 %29.94 in10.0 miEast (80°)18.4 mph24.2 mphMostly Cloudy
10:55 PM78.4 °F74.8 °F89 %29.94 in10.0 miEast (80°)18.4 mph24.2 mphOvercast
10:57 PM78.8 °F75.2 °F89 %29.94 in10.0 miEast (80°)19.6 mph24.2 mphOvercast
11:12 PM78.8 °F73.4 °F83 %29.94 in10.0 miEast (80°)18.4 mphMostly Cloudy
11:18 PM78.8 °F73.4 °F83 %29.93 in10.0 miEast (80°)20.7 mphOvercast
11:52 PM78.8 °F73.4 °F83 %29.92 in10.0 miENE (70°)18.4 mphMostly Cloudy
11:55 PM78.3 °F73.8 °F86 %29.92 in10.0 miENE (70°)18.4 mphMostly Cloudy
Hourly data recorded from PGUA, located miles away from Tamuning, Guam







STORIES FROM OUR PARTNERS